SCP
0 0 0 0 0 0 0 0 0 0 0 0 0 0 0 0 0 0 0 0 0 0 0 0 0 0 0 0 0 0 0 0 0 0 0 0 0 0 0 0 0 0 0
0 0 0 0 0 0 0 0 0 0 0 0 0 0 0 0 0 0 0 0 0 0 0 0 0 0 0 0 0 0 0 0 0 0 0 0 0 0 0 0 0 0 0
0 0 0 0 0 0 0 0 0 0 0 0 0 0 0 0 0 0 0 0 0 0 0 0 0 0 0 0 0 0 0 0 0 0 0 0 0 0 0 0 0 0 0
0 0 0 0 0 0 0 0 0 0 0 0 0 0 0 0 0 0 0 0 0 0 0 0 0 0 0 0 0 0 0 0 0 0 0 0 0 0 0 0 0 0 0
0 0 0 0 0 0 0 0 0 0 0 0 0 0 0 0 0 0 0 0 0 0 0 0 0 0 0 0 0 0 0 0 0 0 0 0 0 0 0 0 0 0 0
0 0 0 0 0 0 0 0 0 0 0 0 0 0 0 0 0 0 0 0 0 0 0 0 0 0 0 0 0 0 0 0 0 0 0 0 0 0 0 0 0 0 0
0 0 0 0 0 0 0 0 0 0 0 0 0 0 0 0 0 0 0 0 0 0 0 0 0 0 0 0 0 0 0 0 0 0 0 0 0 0 0 0 0 0 0
0 0 0 0 0 0 0 0 0 0 0 0 0 0 0 0 0 0 0 0 0 0 0 0 0 0 0 0 0 0 0 0 0 0 0 0 0 0 0 0 0 0 0
0 0 0 0 0 0 0 0 0 0 0 0 0 0 0 0 0 0 0 0 0 0 0 0 0 0 0 0 0 0 0 0 0 0 0 0 0 0 0 0 0 0 0
0 0 0 0 0 0 0 0 0 0 0 0 0 0 0 0 0 0 0 0 0 0 0 0 0 0 0 0 0 0 0 0 0 0 0 0 0 0 0 0 0 0 0
0 0 0 0 0 0 0 0 0 0 0 0 0 0 0 0 0 0 0 0 0 0 0 0 0 0 0 0 0 0 0 0 0 0 0 0 0 0 0 0 0 0 0
0 0 0 0 0 0 0 0 0 0 0 0 0 0 0 0 0 0 0 0 0 0 0 0 0 0 0 0 0 0 0 0 0 0 0 0 0 0 0 0 0 0 0
0 0 0 0 0 0 0 0 0 0 0 0 0 0 0 0 0 0 0 0 0 0 0 0 0 0 0 0 0 0 0 0 0 0 0 0 0 0 0 0 0 0 0
0 0 0 0 0 0 0 0 0 0 0 0 0 0 0 0 0 0 0 0 0 0 0 0 0 0 0 0 0 0 0 0 0 0 0 0 0 0 0 0 0 0 0
0 0 0 0 0 0 0 0 0 0 0 0 0 0 0 0 0 0 0 0 0 0 0 0 0 0 0 0 0 0 0 0 0 0 0 0 0 0 0 0 0 0 0
0 0 0 0 0 0 0 0 0 0 0 0 0 0 0 0 0 0 0 0 0 0 0 0 0 0 0 0 0 0 0 0 0 0 0 0 0 0 0 0 0 0 0
0 0 0 0 0 0 0 0 0 0 0 0 0 0 0 0 0 0 0 0 0 0 0 0 0 0 0 0 0 0 0 0 0 0 0 0 0 0 0 0 0 0 0
0 0 0 0 0 0 0 0 0 0 0 0 0 0 0 0 0 0 0 0 0 0 0 0 0 0 0 0 0 0 0 0 0 0 0 0 0 0 0 0 0 0 0
0 0 0 0 0 0 0 0 0 0 0 0 0 0 0 0 0 0 0 0 0 0 0 0 0 0 0 0 0 0 0 0 0 0 0 0 0 0 0 0 0 0 0
0 0 0 0 0 0 0 0 0 0 0 0 0 0 0 0 0 0 0 0 0 0 0 0 0 0 0 0 0 0 0 0 0 0 0 0 0 0 0 0 0 0 0
0 0 0 0 0 0 0 0 0 0 0 0 0 0 0 0 0 0 0 0 0 0 0 0 0 0 0 0 0 0 0 0 0 0 0 0 0 0 0 0 0 0 0
0 0 0 0 0 0 0 0 0 0 0 0 0 0 0 0 0 0 0 0 0 0 0 0 0 0 0 0 0 0 0 0 0 0 0 0 0 0 0 0 0 0 0
0 0 0 0 0 0 0 0 0 0 0 0 0 0 0 0 0 0 0 0 0 0 0 0 0 0 0 0 0 0 0 0 0 0 0 0 0 0 0 0 0 0 0
0 0 0 0 0 0 0 0 0 0 0 0 0 0 0 0 0 0 0 0 0 0 0 0 0 0 0 0 0 0 0 0 0 0 0 0 0 0 0 0 0 0 0
0 0 0 0 0 0 0 0 0 0 0 0 0 0 0 0 0 0 0 0 0 0 0 0 0 0 0 0 0 0 0 0 0 0 0 0 0 0 0 0 0 0 0
0 0 0 0 0 0 0 0 0 0 0 0 0 0 0 0 0 0 0 0 0 0 0 0 0 0 0 0 0 0 0 0 0 0 0 0 0 0 0 0 0 0 0
Wind_Speed_500mb
38 47 57 59 58 60 63 68 69 72 72 75 74 74 75 74 67 64 63 63 69 70 70 72 73 71 70 67 66 66 69 69 83 80 79 74 69 62 54 51 55 53 47
38 39 44 54 57 57 58 59 60 62 69 73 70 69 68 69 63 66 67 66 66 68 68 69 69 61 62 61 62 64 67 68 72 76 74 69 67 60 55 54 53 47 46
39 33 37 43 49 53 53 53 56 56 58 63 64 69 71 68 67 68 70 68 67 68 67 63 62 60 62 60 59 61 69 64 70 66 73 64 63 57 52 53 49 46 46
38 32 32 32 36 39 43 47 47 49 53 56 59 62 66 64 63 64 66 65 65 64 62 60 60 62 59 57 62 60 60 62 56 60 59 59 56 51 53 53 51 46 44
51 40 30 26 28 32 35 38 43 48 51 51 52 55 57 57 59 59 61 62 62 62 62 62 60 61 57 58 59 53 53 52 53 57 54 53 48 48 50 44 41 41 41
53 55 48 41 35 34 36 36 38 41 44 48 52 54 55 57 60 61 61 62 61 58 58 59 57 58 55 48 48 49 48 54 51 48 48 45 44 40 39 38 38 38 40
57 58 60 56 50 44 42 43 42 45 47 49 49 50 52 53 57 57 57 56 56 51 54 50 51 51 50 48 48 45 52 50 48 48 47 41 35 34 35 34 32 32 34
65 62 65 65 60 55 49 48 46 46 48 49 50 53 55 54 53 49 48 50 52 53 51 45 45 45 44 49 49 46 44 43 42 39 36 33 27 28 30 28 25 25 23
61 64 67 71 66 60 54 49 50 47 47 46 45 45 43 42 44 42 41 44 41 43 42 44 44 43 42 38 40 41 34 32 32 31 26 24 25 24 26 22 19 15 14
60 62 66 70 64 57 53 51 50 45 43 41 39 36 33 31 29 31 32 36 38 40 40 38 34 30 27 24 23 19 18 19 21 21 17 15 14 12 9 8 10 10 11
56 56 58 60 57 54 51 48 45 41 39 37 33 30 28 29 28 27 24 23 23 25 26 25 23 23 19 18 19 17 15 15 16 15 13 12 10 11 12 16 16 19 21
51 53 52 52 52 49 46 41 36 33 33 30 28 28 28 27 21 20 19 20 17 18 20 19 16 12 10 10 10 12 11 11 15 11 10 10 9 11 15 21 23 25 26
50 48 47 45 45 43 39 34 33 31 30 30 29 26 23 22 19 18 18 17 16 15 14 15 12 11 12 10 8 8 7 8 9 10 12 12 14 17 19 23 20 19 20
47 41 37 35 35 35 35 34 34 34 32 29 28 26 25 23 20 19 19 17 17 19 16 16 15 14 14 10 10 10 12 12 12 12 12 12 11 11 13 16 17 18 20
39 35 34 33 33 35 37 36 37 35 33 31 29 27 26 24 21 20 19 17 14 16 17 20 20 17 16 13 11 10 9 7 7 5 5 8 9 9 11 13 14 16 17
35 33 35 35 36 37 38 38 36 31 29 28 26 27 26 24 22 20 18 18 18 19 18 19 18 17 16 13 10 8 6 5 4 3 4 7 10 12 13 13 13 14 17
31 31 34 35 37 37 36 34 33 28 26 27 25 24 22 20 20 21 21 19 19 17 15 15 13 12 11 9 9 8 7 6 6 6 9 11 13 15 17 17 18 21 23
22 27 33 36 35 35 34 31 27 24 22 23 24 25 23 19 20 12 10 11 14 12 11 11 9 8 7 6 6 7 8 9 10 12 14 16 19 22 25 27 28 29 30
11 16 22 26 28 27 24 22 22 26 27 24 19 13 18 21 23 22 18 9 7 7 8 7 7 7 7 8 10 13 15 18 19 20 23 26 29 32 34 36 37 39 41
10 12 16 21 25 24 24 25 28 28 26 21 15 14 13 13 13 14 14 10 8 8 8 11 13 15 16 18 21 25 26 29 31 32 35 37 38 39 40 41 43 43 43
32 31 32 33 34 33 32 30 27 24 21 18 16 13 10 6 3 2 2 5 9 14 18 22 25 27 28 30 33 35 37 38 40 41 43 45 45 45 45 45 45 46 47
36 36 32 35 32 29 27 24 20 17 13 9 4 5 7 10 15 19 23 25 28 30 31 33 35 38 40 41 42 43 45 46 47 48 49 50 50 49 49 49 49 49 48
26 25 24 23 21 19 15 12 9 8 8 11 14 18 20 23 24 25 28 32 34 37 41 44 46 47 47 49 49 50 51 51 51 52 53 53 53 52 50 51 51 51 50
31 30 29 27 24 22 20 19 18 18 19 20 22 24 27 29 32 35 39 43 45 48 49 52 54 54 54 54 54 55 55 54 55 56 56 56 56 54 53 52 52 52 51
33 32 31 30 30 29 28 29 31 33 34 36 36 37 39 39 40 42 44 47 50 52 52 53 54 56 57 57 57 57 58 58 59 59 59 59 58 57 56 57 56 55 53
31 31 31 31 30 30 31 31 32 33 34 36 37 39 41 42 44 46 49 52 55 56 57 59 59 60 62 63 62 62 62 61 60 58 60 62 63 61 58 58 57 56 54
Wind_Direction_500mb
276 264 256 254 250 249 251 253 248 247 248 249 254 255 255 255 252 247 249 251 252 254 256 257 258 261 264 265 267 268 269 269 267 273 276 281 283 287 284 285 283 280 274
288 272 263 258 257 255 252 254 251 249 249 250 249 247 247 253 249 245 246 248 248 249 251 254 259 259 261 265 268 270 271 271 272 278 279 281 283 284 282 282 278 276 271
292 281 267 260 255 255 255 252 251 248 245 246 245 246 248 245 250 248 247 247 248 249 251 252 256 260 261 264 268 273 276 276 272 275 275 276 275 277 277 279 283 277 272
312 289 274 263 259 255 254 253 251 250 247 247 249 248 248 252 251 254 252 251 250 252 253 255 256 261 263 262 262 272 272 273 270 267 265 269 267 271 276 277 277 279 274
298 295 290 279 270 263 261 263 261 256 253 251 252 252 253 253 253 253 254 254 255 257 258 259 260 257 260 262 261 265 270 265 265 261 262 260 266 278 283 282 283 280 273
293 287 284 282 276 273 271 268 269 270 268 258 254 254 255 255 255 255 256 258 262 260 262 264 262 259 263 262 255 258 263 262 256 257 262 266 276 279 278 281 281 276 270
288 281 278 277 277 275 274 272 270 269 266 263 260 255 252 251 252 253 254 256 256 253 255 256 260 258 247 255 259 262 263 261 260 262 267 266 267 270 273 271 273 274 272
283 277 274 272 274 276 276 276 274 272 268 265 262 259 256 252 250 248 245 246 252 255 257 249 246 250 261 267 265 263 261 264 262 262 262 261 269 269 264 264 262 256 265
285 275 272 268 269 273 274 274 273 272 270 267 263 259 256 255 252 247 245 244 243 246 247 247 249 254 260 261 260 260 258 250 250 255 253 251 257 257 263 255 243 238 248
286 275 268 263 263 266 268 267 269 269 268 264 259 256 249 246 242 240 242 244 241 238 243 249 247 242 246 248 251 243 240 236 232 229 229 231 241 240 255 252 228 221 230
290 278 268 264 264 264 262 261 262 260 258 255 249 242 236 235 238 235 232 237 237 234 222 223 230 241 250 239 235 231 225 217 220 224 222 232 233 230 247 243 239 241 250
292 282 272 266 263 261 260 259 255 250 250 236 225 226 228 234 229 228 229 231 235 222 227 220 219 230 214 202 202 207 210 217 215 211 224 234 241 256 259 259 260 263 262
293 282 273 265 260 256 253 247 237 231 225 221 225 226 223 221 222 220 218 222 217 220 220 209 203 219 233 216 181 183 207 223 228 231 244 250 253 249 252 261 268 275 277
290 282 274 262 253 246 238 229 228 226 220 220 221 221 219 216 214 211 209 212 217 220 220 222 222 224 226 206 186 190 204 206 212 226 240 256 274 272 261 262 267 272 273
281 274 265 252 242 236 225 220 219 220 219 220 225 229 225 219 214 212 205 203 207 217 214 212 214 213 212 211 215 223 223 214 212 220 242 258 271 275 270 272 275 277 275
272 263 254 244 231 225 221 216 210 213 215 218 220 223 219 217 216 214 213 212 218 226 217 220 217 216 219 219 214 200 191 182 183 210 255 277 281 283 287 289 289 289 287
263 250 243 232 221 215 213 212 208 201 204 200 203 210 214 203 210 208 212 201 198 203 213 203 199 196 191 192 195 193 200 195 216 243 257 269 278 285 295 302 302 301 299
252 240 229 216 209 205 203 200 186 170 167 168 190 180 166 165 160 155 162 138 129 146 163 171 168 168 168 180 204 223 241 253 260 269 277 283 286 290 292 294 294 292 289
234 204 200 198 188 186 178 167 145 140 138 135 138 144 173 173 175 176 185 175 157 162 174 200 207 216 223 240 257 267 272 275 277 280 281 283 285 286 287 287 287 286 285
102 135 154 160 158 156 149 139 128 126 126 125 135 148 148 148 161 172 187 201 217 232 246 263 270 275 278 279 281 281 282 283 283 283 282 282 282 283 284 284 283 283 282
79 88 94 100 103 105 108 107 106 106 109 104 91 88 98 71 31 4 302 284 293 291 288 286 284 284 283 282 281 280 281 281 280 279 279 279 280 280 280 279 278 279 279
75 77 79 80 81 83 86 90 93 94 93 88 54 0 345 328 322 325 316 306 297 293 291 289 288 288 287 284 283 283 282 282 282 282 281 281 280 279 279 277 276 276 275
59 63 66 72 72 69 64 62 52 27 350 329 315 305 301 297 294 293 291 289 289 291 292 292 290 288 287 287 286 286 285 285 284 283 282 281 280 279 278 277 276 276 276
40 37 37 35 34 30 20 9 1 349 338 329 321 313 307 302 300 298 296 295 294 291 289 288 288 288 287 286 285 284 283 282 281 280 279 278 277 277 276 275 275 275 275
15 14 12 9 5 2 355 348 341 336 333 328 323 318 313 309 304 300 296 295 294 293 292 291 290 289 288 286 285 284 282 280 278 277 276 275 274 273 272 273 273 272 271
2 1 359 355 351 347 343 338 333 328 324 320 317 313 310 308 305 302 299 297 295 294 293 291 289 288 286 285 284 282 280 279 278 277 276 274 273 272 271 271 270 269 268
Wind_Speed_850mb
38 47 57 59 58 60 63 68 69 72 72 75 74 74 75 74 67 64 63 63 69 70 70 72 73 71 70 67 66 66 69 69 83 80 79 74 69 62 54 51 55 53 47
38 39 44 54 57 57 58 59 60 62 69 73 70 69 68 69 63 66 67 66 66 68 68 69 69 61 62 61 62 64 67 68 72 76 74 69 67 60 55 54 53 47 46
39 33 37 43 49 53 53 53 56 56 58 63 64 69 71 68 67 68 70 68 67 68 67 63 62 60 62 60 59 61 69 64 70 66 73 64 63 57 52 53 49 46 46
38 32 32 32 36 39 43 47 47 49 53 56 59 62 66 64 63 64 66 65 65 64 62 60 60 62 59 57 62 60 60 62 56 60 59 59 56 51 53 53 51 46 44
51 40 30 26 28 32 35 38 43 48 51 51 52 55 57 57 59 59 61 62 62 62 62 62 60 61 57 58 59 53 53 52 53 57 54 53 48 48 50 44 41 41 41
53 55 48 41 35 34 36 36 38 41 44 48 52 54 55 57 60 61 61 62 61 58 58 59 57 58 55 48 48 49 48 54 51 48 48 45 44 40 39 38 38 38 40
57 58 60 56 50 44 42 43 42 45 47 49 49 50 52 53 57 57 57 56 56 51 54 50 51 51 50 48 48 45 52 50 48 48 47 41 35 34 35 34 32 32 34
65 62 65 65 60 55 49 48 46 46 48 49 50 53 55 54 53 49 48 50 52 53 51 45 45 45 44 49 49 46 44 43 42 39 36 33 27 28 30 28 25 25 23
61 64 67 71 66 60 54 49 50 47 47 46 45 45 43 42 44 42 41 44 41 43 42 44 44 43 42 38 40 41 34 32 32 31 26 24 25 24 26 22 19 15 14
60 62 66 70 64 57 53 51 50 45 43 41 39 36 33 31 29 31 32 36 38 40 40 38 34 30 27 24 23 19 18 19 21 21 17 15 14 12 9 8 10 10 11
56 56 58 60 57 54 51 48 45 41 39 37 33 30 28 29 28 27 24 23 23 25 26 25 23 23 19 18 19 17 15 15 16 15 13 12 10 11 12 16 16 19 21
51 53 52 52 52 49 46 41 36 33 33 30 28 28 28 27 21 20 19 20 17 18 20 19 16 12 10 10 10 12 11 11 15 11 10 10 9 11 15 21 23 25 26
50 48 47 45 45 43 39 34 33 31 30 30 29 26 23 22 19 18 18 17 16 15 14 15 12 11 12 10 8 8 7 8 9 10 12 12 14 17 19 23 20 19 20
47 41 37 35 35 35 35 34 34 34 32 29 28 26 25 23 20 19 19 17 17 19 16 16 15 14 14 10 10 10 12 12 12 12 12 12 11 11 13 16 17 18 20
39 35 34 33 33 35 37 36 37 35 33 31 29 27 26 24 21 20 19 17 14 16 17 20 20 17 16 13 11 10 9 7 7 5 5 8 9 9 11 13 14 16 17
35 33 35 35 36 37 38 38 36 31 29 28 26 27 26 24 22 20 18 18 18 19 18 19 18 17 16 13 10 8 6 5 4 3 4 7 10 12 13 13 13 14 17
31 31 34 35 37 37 36 34 33 28 26 27 25 24 22 20 20 21 21 19 19 17 15 15 13 12 11 9 9 8 7 6 6 6 9 11 13 15 17 17 18 21 23
22 27 33 36 35 35 34 31 27 24 22 23 24 25 23 19 20 12 10 11 14 12 11 11 9 8 7 6 6 7 8 9 10 12 14 16 19 22 25 27 28 29 30
11 16 22 26 28 27 24 22 22 26 27 24 19 13 18 21 23 22 18 9 7 7 8 7 7 7 7 8 10 13 15 18 19 20 23 26 29 32 34 36 37 39 41
10 12 16 21 25 24 24 25 28 28 26 21 15 14 13 13 13 14 14 10 8 8 8 11 13 15 16 18 21 25 26 29 31 32 35 37 38 39 40 41 43 43 43
32 31 32 33 34 33 32 30 27 24 21 18 16 13 10 6 3 2 2 5 9 14 18 22 25 27 28 30 33 35 37 38 40 41 43 45 45 45 45 45 45 46 47
36 36 32 35 32 29 27 24 20 17 13 9 4 5 7 10 15 19 23 25 28 30 31 33 35 38 40 41 42 43 45 46 47 48 49 50 50 49 49 49 49 49 48
26 25 24 23 21 19 15 12 9 8 8 11 14 18 20 23 24 25 28 32 34 37 41 44 46 47 47 49 49 50 51 51 51 52 53 53 53 52 50 51 51 51 50
31 30 29 27 24 22 20 19 18 18 19 20 22 24 27 29 32 35 39 43 45 48 49 52 54 54 54 54 54 55 55 54 55 56 56 56 56 54 53 52 52 52 51
33 32 31 30 30 29 28 29 31 33 34 36 36 37 39 39 40 42 44 47 50 52 52 53 54 56 57 57 57 57 58 58 59 59 59 59 58 57 56 57 56 55 53
31 31 31 31 30 30 31 31 32 33 34 36 37 39 41 42 44 46 49 52 55 56 57 59 59 60 62 63 62 62 62 61 60 58 60 62 63 61 58 58 57 56 54
Wind_Direction_850mb
276 264 256 254 250 249 251 253 248 247 248 249 254 255 255 255 252 247 249 251 252 254 256 257 258 261 264 265 267 268 269 269 267 273 276 281 283 287 284 285 283 280 274
288 272 263 258 257 255 252 254 251 249 249 250 249 247 247 253 249 245 246 248 248 249 251 254 259 259 261 265 268 270 271 271 272 278 279 281 283 284 282 282 278 276 271
292 281 267 260 255 255 255 252 251 248 245 246 245 246 248 245 250 248 247 247 248 249 251 252 256 260 261 264 268 273 276 276 272 275 275 276 275 277 277 279 283 277 272
312 289 274 263 259 255 254 253 251 250 247 247 249 248 248 252 251 254 252 251 250 252 253 255 256 261 263 262 262 272 272 273 270 267 265 269 267 271 276 277 277 279 274
298 295 290 279 270 263 261 263 261 256 253 251 252 252 253 253 253 253 254 254 255 257 258 259 260 257 260 262 261 265 270 265 265 261 262 260 266 278 283 282 283 280 273
293 287 284 282 276 273 271 268 269 270 268 258 254 254 255 255 255 255 256 258 262 260 262 264 262 259 263 262 255 258 263 262 256 257 262 266 276 279 278 281 281 276 270
288 281 278 277 277 275 274 272 270 269 266 263 260 255 252 251 252 253 254 256 256 253 255 256 260 258 247 255 259 262 263 261 260 262 267 266 267 270 273 271 273 274 272
283 277 274 272 274 276 276 276 274 272 268 265 262 259 256 252 250 248 245 246 252 255 257 249 246 250 261 267 265 263 261 264 262 262 262 261 269 269 264 264 262 256 265
285 275 272 268 269 273 274 274 273 272 270 267 263 259 256 255 252 247 245 244 243 246 247 247 249 254 260 261 260 260 258 250 250 255 253 251 257 257 263 255 243 238 248
286 275 268 263 263 266 268 267 269 269 268 264 259 256 249 246 242 240 242 244 241 238 243 249 247 242 246 248 251 243 240 236 232 229 229 231 241 240 255 252 228 221 230
290 278 268 264 264 264 262 261 262 260 258 255 249 242 236 235 238 235 232 237 237 234 222 223 230 241 250 239 235 231 225 217 220 224 222 232 233 230 247 243 239 241 250
292 282 272 266 263 261 260 259 255 250 250 236 225 226 228 234 229 228 229 231 235 222 227 220 219 230 214 202 202 207 210 217 215 211 224 234 241 256 259 259 260 263 262
293 282 273 265 260 256 253 247 237 231 225 221 225 226 223 221 222 220 218 222 217 220 220 209 203 219 233 216 181 183 207 223 228 231 244 250 253 249 252 261 268 275 277
290 282 274 262 253 246 238 229 228 226 220 220 221 221 219 216 214 211 209 212 217 220 220 222 222 224 226 206 186 190 204 206 212 226 240 256 274 272 261 262 267 272 273
281 274 265 252 242 236 225 220 219 220 219 220 225 229 225 219 214 212 205 203 207 217 214 212 214 213 212 211 215 223 223 214 212 220 242 258 271 275 270 272 275 277 275
272 263 254 244 231 225 221 216 210 213 215 218 220 223 219 217 216 214 213 212 218 226 217 220 217 216 219 219 214 200 191 182 183 210 255 277 281 283 287 289 289 289 287
263 250 243 232 221 215 213 212 208 201 204 200 203 210 214 203 210 208 212 201 198 203 213 203 199 196 191 192 195 193 200 195 216 243 257 269 278 285 295 302 302 301 299
252 240 229 216 209 205 203 200 186 170 167 168 190 180 166 165 160 155 162 138 129 146 163 171 168 168 168 180 204 223 241 253 260 269 277 283 286 290 292 294 294 292 289
234 204 200 198 188 186 178 167 145 140 138 135 138 144 173 173 175 176 185 175 157 162 174 200 207 216 223 240 257 267 272 275 277 280 281 283 285 286 287 287 287 286 285
102 135 154 160 158 156 149 139 128 126 126 125 135 148 148 148 161 172 187 201 217 232 246 263 270 275 278 279 281 281 282 283 283 283 282 282 282 283 284 284 283 283 282
79 88 94 100 103 105 108 107 106 106 109 104 91 88 98 71 31 4 302 284 293 291 288 286 284 284 283 282 281 280 281 281 280 279 279 279 280 280 280 279 278 279 279
75 77 79 80 81 83 86 90 93 94 93 88 54 0 345 328 322 325 316 306 297 293 291 289 288 288 287 284 283 283 282 282 282 282 281 281 280 279 279 277 276 276 275
59 63 66 72 72 69 64 62 52 27 350 329 315 305 301 297 294 293 291 289 289 291 292 292 290 288 287 287 286 286 285 285 284 283 282 281 280 279 278 277 276 276 276
40 37 37 35 34 30 20 9 1 349 338 329 321 313 307 302 300 298 296 295 294 291 289 288 288 288 287 286 285 284 283 282 281 280 279 278 277 277 276 275 275 275 275
15 14 12 9 5 2 355 348 341 336 333 328 323 318 313 309 304 300 296 295 294 293 292 291 290 289 288 286 285 284 282 280 278 277 276 275 274 273 272 273 273 272 271
2 1 359 355 351 347 343 338 333 328 324 320 317 313 310 308 305 302 299 297 295 294 293 291 289 288 286 285 284 282 280 279 278 277 276 274 273 272 271 271 270 269 268